TimeMST,TemperatureF,Dew PointF,Humidity,Sea Level PressureIn,VisibilityMPH,Wind Direction,Wind SpeedMPH,Gust SpeedMPH,PrecipitationIn,Events,Conditions,WindDirDegrees,DateUTC
12:53 AM,34.0,10.0,37,30.16,10.0,SW,4.6,-,N/A,,Clear,220,2012-12-04 07:53:00
1:53 AM,30.0,10.9,45,30.18,10.0,West,4.6,-,N/A,,Clear,280,2012-12-04 08:53:00
2:53 AM,30.0,12.9,49,30.19,10.0,WSW,8.1,-,N/A,,Clear,240,2012-12-04 09:53:00
3:53 AM,32.0,10.9,42,30.19,10.0,SW,3.5,-,N/A,,Clear,230,2012-12-04 10:53:00
4:53 AM,34.0,10.9,38,30.19,10.0,Calm,Calm,-,N/A,,Clear,0,2012-12-04 11:53:00
5:53 AM,28.9,10.9,47,30.21,10.0,SW,3.5,-,N/A,,Clear,220,2012-12-04 12:53:00
6:53 AM,24.1,15.1,69,30.21,10.0,South,4.6,-,N/A,,Clear,180,2012-12-04 13:53:00
7:53 AM,24.1,15.1,69,30.19,10.0,South,5.8,-,N/A,,Clear,180,2012-12-04 14:53:00
8:53 AM,28.0,18.0,66,30.16,10.0,SSE,6.9,-,N/A,,Partly Cloudy,160,2012-12-04 15:53:00
9:53 AM,33.1,19.0,56,30.12,10.0,South,4.6,-,N/A,,Scattered Clouds,180,2012-12-04 16:53:00
10:53 AM,39.9,21.9,49,30.04,10.0,Calm,Calm,-,N/A,,Mostly Cloudy,0,2012-12-04 17:53:00
11:53 AM,36.0,23.0,59,30.04,10.0,NNW,11.5,24.2,N/A,,Partly Cloudy,330,2012-12-04 18:53:00
12:53 PM,44.1,15.1,31,30.00,10.0,NW,5.8,-,N/A,,Mostly Cloudy,310,2012-12-04 19:53:00
1:53 PM,50.0,14.0,24,29.99,10.0,Calm,Calm,-,N/A,,Mostly Cloudy,0,2012-12-04 20:53:00
2:53 PM,50.0,12.0,22,30.01,10.0,NE,4.6,-,N/A,,Clear,40,2012-12-04 21:53:00
3:53 PM,46.0,12.0,25,30.04,10.0,Calm,Calm,-,N/A,,Clear,0,2012-12-04 22:53:00
4:53 PM,44.1,14.0,30,30.05,10.0,SW,3.5,-,N/A,,Clear,230,2012-12-04 23:53:00
5:53 PM,37.9,18.0,45,30.06,10.0,SW,4.6,-,N/A,,Clear,220,2012-12-05 00:53:00
6:53 PM,37.9,19.0,47,30.08,10.0,West,4.6,-,N/A,,Clear,260,2012-12-05 01:53:00
7:53 PM,39.9,21.0,47,30.06,10.0,WSW,8.1,-,N/A,,Clear,250,2012-12-05 02:53:00
8:53 PM,36.0,21.9,57,30.05,10.0,Calm,Calm,-,N/A,,Clear,0,2012-12-05 03:53:00
9:53 PM,37.0,24.1,59,30.00,10.0,Calm,Calm,-,N/A,,Clear,0,2012-12-05 04:53:00
10:53 PM,37.9,23.0,55,29.98,10.0,Calm,Calm,-,N/A,,Clear,0,2012-12-05 05:53:00
11:53 PM,37.9,24.1,57,29.96,10.0,Variable,3.5,-,N/A,,Clear,0,2012-12-05 06:53:00